Date String (YYYY-MM-DD hh:mm:ss) UTC,Instrument flags,absolute air pressure of the measurement (hPa),sample flow rate (lpm),inlet stack bypass flow (lpm),air temperature of the measurement (°C),ambient temperature measured by the external sensor (°C),aerosol sample conditioner tube jacket temperature (°C),OPC LED temperature (°C),internal box temperature (°C),relative humidity of the measurement (%),span deviation,mass concentration of particles derived from Lorenz-Mie calculation of OPC scattering (μg/m³),mass concentration of particles derived from Lorenz-Mie calculation of OPC scattering (μg/m³),mass concentration of particles derived from Lorenz-Mie calculation of OPC scattering (μg/m³)
DateTimeUTC,F1_M11,P_M11,Q1_M11,Q2_M11,T1_M11,T2_M11,T3_M11,T4_M11,T5_M11,U1_M11,ZSPAN_M11,X2_M11,X0_M11,X1_M11
2023-06-27 01:00:00,SystemResetWarning,0827.7,4.98,000.00,029.2,027.0,000.0,037.7,030.9,29.7,0000.0,0006.85,0021.80,0005.13
2023-06-27 01:01:00,SystemResetWarning,0827.6,4.99,000.00,029.3,027.4,000.0,037.7,031.0,28.8,0000.0,0006.83,0022.05,0005.14
2023-06-27 01:02:00,SystemResetWarning,0827.6,5.01,000.00,029.3,027.7,000.0,037.7,031.1,28.7,0000.0,0006.80,0023.29,0005.14
2023-06-27 01:03:00,SystemResetWarning,0827.6,5.01,000.00,029.4,027.7,000.0,037.7,031.1,30.2,0000.0,0006.82,0023.98,0005.14
2023-06-27 01:04:00,SystemResetWarning,0827.6,4.98,000.00,029.4,026.0,000.0,037.7,031.1,30.3,0000.0,0006.84,0024.96,0005.14
2023-06-27 01:05:00,SystemResetWarning,0827.6,5.00,000.00,029.3,024.8,000.0,037.6,030.9,28.2,0000.0,0006.77,0025.17,0005.12
2023-06-27 01:06:00,SystemResetWarning,0827.6,5.01,000.00,029.3,024.8,000.0,037.6,030.9,27.4,0000.0,0006.73,0025.22,0005.11
2023-06-27 01:07:00,SystemResetWarning,0827.5,5.00,000.00,029.2,025.1,000.0,037.6,030.6,28.3,0000.0,0006.68,0025.17,0005.11
2023-06-27 01:08:00,SystemResetWarning,0827.5,5.00,000.00,029.2,025.7,000.0,037.6,030.6,29.3,0000.0,0006.67,0024.36,0005.10
2023-06-27 01:09:00,SystemResetWarning,0827.6,4.99,000.00,029.2,026.2,000.0,037.6,030.8,29.1,0000.0,0006.68,0024.42,0005.09
2023-06-27 01:10:00,SystemResetWarning,0827.6,5.00,000.00,029.2,026.7,000.0,037.7,030.9,28.7,0000.0,0006.62,0023.79,0005.06
2023-06-27 01:11:00,SystemResetWarning,0827.7,5.01,000.00,029.3,027.1,000.0,037.7,031.0,30.2,0000.0,0006.52,0024.07,0005.04
2023-06-27 01:12:00,SystemResetWarning,0827.7,5.00,000.00,029.3,027.5,000.0,037.7,031.1,30.0,0000.5,0006.51,0023.63,0005.02
2023-06-27 01:13:00,SystemResetWarning,0827.7,4.99,000.00,029.3,027.8,000.0,037.7,031.1,30.0,0000.0,0006.54,0023.49,0005.01
2023-06-27 01:14:00,SystemResetWarning,0827.6,4.99,000.00,029.4,027.3,000.0,037.7,031.2,29.6,0000.0,0006.52,0023.84,0005.00
2023-06-27 01:15:00,SystemResetWarning,0827.6,5.00,000.00,029.4,025.4,000.0,037.7,031.0,29.6,0000.0,0006.51,0023.39,0004.97
2023-06-27 01:16:00,SystemResetWarning,0827.5,5.01,000.00,029.3,024.7,000.0,037.6,030.9,28.9,0000.0,0006.52,0023.23,0004.96
2023-06-27 01:17:00,SystemResetWarning,0827.5,5.01,000.00,029.3,024.8,000.0,037.6,030.6,25.7,0000.0,0006.60,0022.11,0004.96
2023-06-27 01:18:00,SystemResetWarning,0827.5,5.00,000.00,029.2,025.3,000.0,037.6,030.5,25.5,0000.0,0006.66,0022.40,0004.95
2023-06-27 01:19:00,SystemResetWarning,0827.5,5.00,000.00,029.2,025.8,000.0,037.6,030.6,25.9,0000.0,0006.64,0022.12,0004.95
2023-06-27 01:20:00,SystemResetWarning,0827.5,5.00,000.00,029.2,026.3,000.0,037.6,030.8,25.2,0000.0,0006.58,0021.72,0004.93
2023-06-27 01:21:00,SystemResetWarning,0827.5,5.00,000.00,029.2,026.8,000.0,037.7,030.9,24.9,0000.0,0006.59,0021.24,0004.92
2023-06-27 01:22:00,SystemResetWarning,0827.5,4.99,000.00,029.3,027.2,000.0,037.7,031.0,25.6,0000.0,0006.62,0020.33,0004.91
2023-06-27 01:23:00,SystemResetWarning,0827.6,4.99,000.00,029.3,027.6,000.0,037.7,031.1,25.4,0000.0,0006.60,0021.54,0004.89
2023-06-27 01:24:00,SystemResetWarning,0827.7,5.00,000.00,029.4,027.9,000.0,037.7,031.1,24.7,0000.0,0006.50,0020.96,0004.86
2023-06-27 01:25:00,SystemResetWarning,0827.7,5.01,000.00,029.4,027.6,000.0,037.7,031.2,24.5,0000.0,0006.47,0019.90,0004.84
2023-06-27 01:26:00,SystemResetWarning,0827.7,4.98,000.00,029.4,025.9,000.0,037.7,031.1,24.4,0000.0,0006.42,0020.70,0004.81
2023-06-27 01:27:00,SystemResetWarning,0827.7,5.01,000.00,029.4,024.8,000.0,037.7,031.0,24.5,0000.0,0006.35,0021.18,0004.78
2023-06-27 01:28:00,SystemResetWarning,0827.7,5.02,000.00,029.3,024.8,000.0,037.6,030.8,24.8,0000.0,0006.28,0020.96,0004.76
2023-06-27 01:29:00,SystemResetWarning,0827.7,5.00,000.00,029.2,025.2,000.0,037.6,030.6,25.6,0000.0,0006.17,0020.97,0004.74
2023-06-27 01:30:00,SystemResetWarning,0827.7,4.99,000.00,029.2,025.7,000.0,037.7,030.6,25.7,0000.0,0006.19,0021.57,0004.74
2023-06-27 01:31:00,SystemResetWarning,0827.7,5.01,000.00,029.2,026.2,000.0,037.7,030.8,25.5,0000.0,0006.19,0020.82,0004.76
2023-06-27 01:32:00,SystemResetWarning,0827.7,4.98,000.00,029.2,026.7,000.0,037.7,030.9,26.3,0000.0,0006.15,0019.76,0004.76
2023-06-27 01:33:00,SystemResetWarning,0827.7,5.00,000.00,029.3,027.1,000.0,037.7,031.0,26.4,0000.0,0006.12,0019.70,0004.77
2023-06-27 01:34:00,SystemResetWarning,0827.6,5.01,000.00,029.3,027.5,000.0,037.7,031.1,25.2,0000.0,0006.06,0018.96,0004.77
2023-06-27 01:35:00,SystemResetWarning,0827.6,5.00,000.00,029.4,027.8,000.0,037.8,031.1,25.2,0000.0,0006.11,0019.77,0004.78
2023-06-27 01:36:00,SystemResetWarning,0827.6,4.98,000.00,029.4,027.0,000.0,037.7,031.2,25.1,0000.0,0006.06,0020.59,0004.77
2023-06-27 01:37:00,SystemResetWarning,0827.6,5.01,000.00,029.4,025.1,000.0,037.7,031.0,25.7,0000.0,0006.02,0019.27,0004.78
2023-06-27 01:38:00,SystemResetWarning,0827.5,5.01,000.00,029.3,024.5,000.0,037.6,031.0,25.5,0000.0,0006.08,0018.81,0004.80
2023-06-27 01:39:00,SystemResetWarning,0827.6,5.01,000.00,029.3,024.8,000.0,037.6,030.6,25.5,0000.0,0006.06,0019.36,0004.80
2023-06-27 01:40:00,SystemResetWarning,0827.6,5.01,000.00,029.2,025.2,000.0,037.6,030.5,25.7,0000.0,0006.05,0019.22,0004.79
2023-06-27 01:41:00,SystemResetWarning,0827.6,5.00,000.00,029.2,025.8,000.0,037.6,030.6,26.0,0000.0,0006.00,0019.13,0004.75
2023-06-27 01:42:00,SystemResetWarning,0827.6,5.00,000.00,029.2,026.4,000.0,037.7,030.8,25.3,0000.0,0006.00,0020.05,0004.71
2023-06-27 01:43:00,SystemResetWarning,0827.7,4.99,000.00,029.2,026.8,000.0,037.7,030.9,25.1,0000.6,0005.97,0020.44,0004.69
2023-06-27 01:44:00,SystemResetWarning,0827.7,4.99,000.00,029.3,027.3,000.0,037.7,031.0,25.0,0000.0,0006.01,0021.04,0004.68
2023-06-27 01:45:00,SystemResetWarning,0827.7,5.00,000.00,029.3,027.6,000.0,037.7,031.0,24.8,0000.0,0006.06,0021.28,0004.68
2023-06-27 01:46:00,SystemResetWarning,0827.7,5.02,000.00,029.4,027.9,000.0,037.7,031.1,25.4,0000.0,0006.11,0021.16,0004.68
2023-06-27 01:47:00,SystemResetWarning,0827.6,4.98,000.00,029.4,027.4,000.0,037.7,031.2,25.5,0000.0,0006.16,0021.96,0004.68
2023-06-27 01:48:00,SystemResetWarning,0827.5,5.00,000.00,029.4,025.5,000.0,037.7,031.0,25.4,0000.5,0006.11,0021.70,0004.66
2023-06-27 01:49:00,SystemResetWarning,0827.5,5.01,000.00,029.4,024.6,000.0,037.6,030.9,25.5,0000.0,0006.07,0021.88,0004.64
2023-06-27 01:50:00,SystemResetWarning,0827.5,5.01,000.00,029.3,024.7,000.0,037.6,030.7,25.3,0000.0,0006.05,0021.87,0004.62
2023-06-27 01:51:00,SystemResetWarning,0827.5,5.00,000.00,029.2,025.1,000.0,037.6,030.5,25.7,0000.0,0006.07,0022.37,0004.62
2023-06-27 01:52:00,SystemResetWarning,0827.5,5.00,000.00,029.2,025.7,000.0,037.7,030.6,25.8,0000.0,0006.04,0022.81,0004.61
2023-06-27 01:53:00,SystemResetWarning,0827.5,5.00,000.00,029.2,026.2,000.0,037.7,030.7,25.9,0000.0,0005.95,0021.79,0004.60
2023-06-27 01:54:00,SystemResetWarning,0827.5,5.00,000.00,029.2,026.7,000.0,037.7,030.8,25.7,0000.0,0005.97,0021.45,0004.60
2023-06-27 01:55:00,SystemResetWarning,0827.5,4.99,000.00,029.3,027.1,000.0,037.7,030.9,25.6,0000.0,0005.94,0021.06,0004.58
2023-06-27 01:56:00,SystemResetWarning,0827.5,5.00,000.00,029.3,027.5,000.0,037.7,031.0,25.5,0000.0,0005.91,0020.08,0004.55
2023-06-27 01:57:00,SystemResetWarning,0827.5,5.00,000.00,029.4,027.8,000.0,037.7,031.1,25.7,0000.0,0005.88,0019.27,0004.53
2023-06-27 01:58:00,SystemResetWarning,0827.6,5.01,000.00,029.4,027.7,000.0,037.8,031.2,25.6,0000.0,0005.80,0019.98,0004.51
2023-06-27 01:59:00,SystemResetWarning,0827.5,4.98,000.00,029.4,025.8,000.0,037.7,031.1,25.7,0000.0,0005.84,0020.95,0004.51
